DECAYED

STARLINK-1617, 46350 (Decayed)

Orbit data source: Space-Track

STARLINK-1617, 46350 was a payload satellite owned by SpaceX/Seattle (US) in LEO that was launched on Thu, 03 Sep 2020 UTC via an FALCON 9 launch vehicle from the Air Force Eastern Test Range (AFETR). Payload-class satellites include a variety of spacecraft equipped with specific instruments for various scientific and technological missions. These include communications satellites like Starlink; space stations such as the ISS; scientific satellites like the Hubble; Earth observation satellites from companies like Planet Labs, Umbra, and HawkEye 360; GPS; miniature CubeSats for education and research; and military/defense satellites.

Not visible in the next 10 days
Identifier
46350, 2020-062AB
Orbit
Decayed
Country
Flag of USUS
Related business
Manufacturer
SpaceX/Seattle
Mission
Decayed Commercial Communications
Bus & Motor
STARLINK, Unknown motor
Mass
260 kg wet, ~248 kg dry
Launch date (UTC)
2020-09-03 (5 years ago)
Launch vehicle
FALCON 9
Launch site
Air Force Eastern Test Range (AFETR)
Object type
Payload
Rocket body
Debris
Shape & HBR
Box + 1 Pan, 4.4 m
Radar Cross Section
13.562 m², Large (>1 m²)

Expand to show TLE details & history
Last TLE update: 1 year ago

TLE from 1 year ago
0 STARLINK-1617
1 46350U 20062AB  24159.67309141  .27472704  12265-4  39212-2 0  9992
2 46350  53.0306 321.1677 0014437 288.1110 177.6355 16.33671739208701
Epoch: 2024-06-07T16:09Z
TLE epoch observation values (Epoch: 2024-06-07T16:09:15.097Z)
Latitude
50.415°
Longitude
-62.53659°
Altitude
198.01 km
Speed
7.788 km/s
True Right ascension
05h 05m 17s
True Declination
50° 13' 54"
Sunlit
Object was in daylight at epoch
Visualization orbit readout
Latitude
Unknown
Longitude
Unknown
Altitude
Unknown
Speed
Unknown
Apparent Right ascension
Unknown
Apparent Declination
Unknown
Sunlit
N/A
Visualization observer readout
Local Sidereal Time
22:56:40
Azimuth
Unknown
Elevation
Unknown
Doppler factor
Unknown
Orbital elements
Apogee altitude
192.452 km
Perigee altitude
173.508 km
Semi-major axis
6,561.117 km
Eccentricity
0.00144
Inclination
53.0306°
RAAN
321.1677°
Arg. of periapsis
288.111°
True anomaly
177.64231°
Mean anomaly
177.6355°
Eccentric anomaly
177.63891°
Mean motion
4.08391 °/min
Orbital period
88.15 mins
BSTAR
0.0039212
Loading maneuver chart data...
Computing Atmospheric mass density...
Loading historical data...
Loading historical data...
Loading historical data...
Loading historical data...
Loading historical data...
Loading historical data...
Loading historical data...

Documentation

Showing up to 5 results
|